SL-14 DEB, 45268

Orbit data source: Space-Track

SL-14 DEB, 45268 is space debris in LEO originally from a launch on Thu, 15 Aug 1991 UTC launched from the Plesetsk Missile And Space Complex (PKMTR). Debris objects in space refer to the collection of defunct objects orbiting the Earth. Examples of debris include non-operational satellites, rocket bodies, and fragments generated from explosions, collisions, or faulty payload assembly.

Loading next visibility...
Identifier
45268, 1991-056E
Orbit
LEO
Country
Flag of CISCIS
Related business
Manufacturer
Unknown
Mission
Spacecraft
Bus & Motor
Unknown
Mass
Unknown
Launch date (UTC)
1991-08-15 (35 years ago)
Launch vehicle
Unknown
Launch site
Plesetsk Missile And Space Complex (PKMTR)
Object type
Payload
Rocket body
Debris
Shape & HBR
Unknown shape, 0.4 m
Radar Cross Section
Medium (>0.1 m² and <1 m²)

Expand to show TLE details & history
Last TLE update: 10 hours ago

TLE from 10 hours ago
0 SL-14 DEB
1 45268U 91056E   26126.59096565  .00000150  00000-0  36632-3 0  9997
2 45268  82.5571 172.6492 0008673 310.7884  49.2485 13.15670695299095
Epoch: 2026-05-06T14:10Z
TLE epoch observation values (Epoch: 2026-05-06T14:10:59.432Z)
Latitude
0.00005°
Longitude
95.45231°
Altitude
1,199.819 km
Speed
7.256 km/s
True Right ascension
11h 30m 35s
True Declination
0° 00' 00"
Sunlit
Object was in full shadow at epoch
Visualization orbit readout
Latitude
Unknown
Longitude
Unknown
Altitude
Unknown
Speed
Unknown
Apparent Right ascension
Unknown
Apparent Declination
Unknown
Sunlit
N/A
Visualization observer readout
Local Sidereal Time
07:40:43
Azimuth
Unknown
Elevation
Unknown
Doppler factor
Unknown
Orbital elements
Apogee altitude
1,205.119 km
Perigee altitude
1,191.977 km
Semi-major axis
7,576.685 km
Eccentricity
0.00087
Inclination
82.5571°
RAAN
172.6492°
Arg. of periapsis
310.7884°
True anomaly
49.32384°
Mean anomaly
49.2485°
Eccentric anomaly
49.28617°
Mean motion
3.29097 °/min
Orbital period
109.39 mins
BSTAR
0.00036632
Loading maneuver chart data...
Computing Atmospheric mass density...
Loading historical data...
Loading historical data...
Loading historical data...
Loading historical data...
Loading historical data...
Loading historical data...
Loading historical data...

Documentation

Showing up to 5 results
|